(261685) = 1998 SV39 = 2004 TQ95 = 2005 YV201

Discovered at Kitt Peak on 2005-12-24 by Spacewatch.

Orbit

Orbit type: Main Belt

Note: WebGL enabled browser required.

epoch2024-03-31.0
epoch JD2460400.5
perihelion date2022-06-03.62634
perihelion JD2459734.12634
argument of perihelion (°)207.29685
ascending node (°)192.43759
inclination (°)0.72402
eccentricity0.0181322
perihelion distance (AU)3.1727460
Tisserand w.r.t. Jupiter3.2
ΔV w.r.t. Earth (km/sec)10.9
semimajor axis (AU)3.2313371
mean anomaly (°)113.07023
mean daily motion (°/day)0.16967990
aphelion distance (AU)3.290
period (years)5.81
P-vector [x]0.76902343
P-vector [y]0.58875443
P-vector [z]0.24894013
Q-vector [x]-0.63921480
Q-vector [y]0.70996106
Q-vector [z]0.29556680
absolute magnitude16.25
phase slope0.15
uncertainty0
referenceMPEC 2024-C128
observations used260
oppositions15
arc length (days)9271
first opposition used1998
last opposition used2024
residual rms (arc-secs)0.82
perturbers coarse indicatorM-v
perturbers precise indicator003Ek
first observation date used1998-09-23.0
last observation date used2024-02-10.0
computer nameMPCLINUX
JD of orbit computation2456406.170870
perihelion JD uncertainty (days)1.1129E-03
argument of perihelion uncertainty (°)5.2881E-04
ascending node uncertainty (°)4.9578E-04
inclination uncertainty (°)9.9159E-06
eccentricity uncertainty 9.1404E-08
perihelion distance uncertainty (AU)2.9135E-07
Minimum Orbit Intersection Distances (in AU)
for orbit epoch: 2460400.5, reference: E2024-G88
Mercury2.80227
Venus2.44959
Earth2.17895
Mars1.58396
Jupiter1.77347
Saturn5.84689
Uranus15.174
Neptune26.6509

Observations

264 total observations over interval: 1998 09 23.44797 – 2024 02 10.568117
These data are available for download (format description).

Date (UT) J2000 RA J2000 Dec Magn Location Ref
1998 09 23.44797 00 58 26.06 +06 17 56.1 21.2 V 691 – Steward Observatory, Kitt Peak-Spacewatch MPS 2377
1998 09 23.46941 00 58 25.17 +06 17 50.1 21.4 V 691 – Steward Observatory, Kitt Peak-Spacewatch MPS 2377
1998 09 23.49484 00 58 24.16 +06 17 44.1 21.3 V 691 – Steward Observatory, Kitt Peak-Spacewatch MPS 2377
1998 09 27.34577 00 55 47.78 +06 00 41.1 21.1 V 691 – Steward Observatory, Kitt Peak-Spacewatch MPS 2377
1998 09 27.36743 00 55 46.84 +06 00 35.3 21.4 V 691 – Steward Observatory, Kitt Peak-Spacewatch MPS 2377
1998 09 27.38848 00 55 45.93 +06 00 28.9 21.4 V 691 – Steward Observatory, Kitt Peak-Spacewatch MPS 2377
2004 10 05.25646 02 00 04.92 +12 00 47.4 20.9 V 691 – Steward Observatory, Kitt Peak-Spacewatch MPS 117800
2004 10 05.28551 02 00 03.66 +12 00 41.7 20.6 V 691 – Steward Observatory, Kitt Peak-Spacewatch MPS 117800
2004 10 05.31310 02 00 02.58 +12 00 34.8 21.3 V 691 – Steward Observatory, Kitt Peak-Spacewatch MPS 117800
2004 10 09.26401 01 57 23.43 +11 45 19.6 20.7 V 691 – Steward Observatory, Kitt Peak-Spacewatch MPS 117800
2004 10 09.29122 01 57 22.26 +11 45 13.2 20.8 V 691 – Steward Observatory, Kitt Peak-Spacewatch MPS 117800
2004 10 09.31847 01 57 21.09 +11 45 06.4 20.7 V 691 – Steward Observatory, Kitt Peak-Spacewatch MPS 117800
2004 10 13.24545 01 54 33.72 +11 29 00.7 20.7 V 691 – Steward Observatory, Kitt Peak-Spacewatch MPS 117800
2004 10 13.27459 01 54 32.41 +11 28 53.2 20.5 V 691 – Steward Observatory, Kitt Peak-Spacewatch MPS 117800
2004 10 13.30185 01 54 31.20 +11 28 46.4 20.5 V 691 – Steward Observatory, Kitt Peak-Spacewatch MPS 117800
2004 10 15.32019 01 53 02.46 +11 20 12.3 20.0 R G96 – Mt. Lemmon Survey MPS 117800
2004 10 15.32807 01 53 02.10 +11 20 10.5 19.8 R G96 – Mt. Lemmon Survey MPS 117800
2004 10 15.33596 01 53 01.73 +11 20 08.3 20.3 R G96 – Mt. Lemmon Survey MPS 117800
2004 10 15.34383 01 53 01.36 +11 20 06.5 19.7 R G96 – Mt. Lemmon Survey MPS 117800
2005 12 24.35592 07 33 55.39 +20 39 53.9   691 – Steward Observatory, Kitt Peak-Spacewatch MPS 159154
2005 12 24.37617 07 33 54.45 +20 39 55.7   691 – Steward Observatory, Kitt Peak-Spacewatch MPS 159154
2005 12 24.39352 07 33 53.64 +20 39 57.2   691 – Steward Observatory, Kitt Peak-Spacewatch MPS 159154
2006 01 04.35815 07 25 03.07 +20 58 06.6 20.6 V G96 – Mt. Lemmon Survey MPS 159154
2006 01 04.36556 07 25 02.64 +20 58 07.6 20.8 V G96 – Mt. Lemmon Survey MPS 159154
2006 01 04.37296 07 25 02.28 +20 58 07.8 20.7 V G96 – Mt. Lemmon Survey MPS 159154
2006 01 04.38036 07 25 01.88 +20 58 08.9 20.8 V G96 – Mt. Lemmon Survey MPS 159154
2006 01 05.29002 07 24 15.58 +20 59 42.4 20.7 V 691 – Steward Observatory, Kitt Peak-Spacewatch MPS 159950
2006 01 05.30734 07 24 14.65 +20 59 44.3 20.8 V 691 – Steward Observatory, Kitt Peak-Spacewatch MPS 159950
2006 01 05.32466 07 24 13.74 +20 59 46.4 20.8 V 691 – Steward Observatory, Kitt Peak-Spacewatch MPS 159950
2007 03 25.29675 12 05 18.74 -00 47 58.3 21.0 V G96 – Mt. Lemmon Survey MPS 213753
2007 03 25.30406 12 05 18.42 -00 47 55.9 21.0 V G96 – Mt. Lemmon Survey MPS 213753
2007 03 25.31130 12 05 18.13 -00 47 54.2 20.7 V G96 – Mt. Lemmon Survey MPS 213753
2007 03 25.31846 12 05 17.80 -00 47 51.6 20.7 V G96 – Mt. Lemmon Survey MPS 213753
2007 04 07.26440 11 56 27.13 +00 12 08.4 20.9 V G96 – Mt. Lemmon Survey MPS 213753
2007 04 07.27071 11 56 26.88 +00 12 10.5 21.9 V G96 – Mt. Lemmon Survey MPS 213753
2007 04 07.27704 11 56 26.62 +00 12 12.1 21.1 V G96 – Mt. Lemmon Survey MPS 213753
2007 04 07.28337 11 56 26.37 +00 12 13.2 20.7 V G96 – Mt. Lemmon Survey MPS 213753
2007 04 15.25535 11 51 45.00 +00 44 19.4 21.6 V G96 – Mt. Lemmon Survey MPS 213753
2007 04 15.26413 11 51 44.64 +00 44 21.2 21.1 V G96 – Mt. Lemmon Survey MPS 213753
2007 04 15.27298 11 51 44.35 +00 44 23.6 22.1 V G96 – Mt. Lemmon Survey MPS 213753
2007 04 15.28182 11 51 44.10 +00 44 25.3 21.8 V G96 – Mt. Lemmon Survey MPS 213753
2007 04 23.21972 11 47 57.73 +01 10 32.0 21.4 V G96 – Mt. Lemmon Survey MPS 213753
2007 04 23.22523 11 47 57.58 +01 10 32.4 21.0 V G96 – Mt. Lemmon Survey MPS 213753
2007 04 23.23074 11 47 57.44 +01 10 33.7 21.8 V G96 – Mt. Lemmon Survey MPS 213753
2007 04 23.23630 11 47 57.33 +01 10 34.2 21.6 V G96 – Mt. Lemmon Survey MPS 213753
2009 07 27.35534 22 01 17.31 -11 15 49.6 21.2 V 691 – Steward Observatory, Kitt Peak-Spacewatch MPS 290246
2009 07 27.37306 22 01 16.71 -11 15 52.7 20.8 V 691 – Steward Observatory, Kitt Peak-Spacewatch MPS 290246
2009 07 27.39762 22 01 15.75 -11 15 56.8 21.1 V 691 – Steward Observatory, Kitt Peak-Spacewatch MPS 290246
2009 09 21.20061 21 25 59.44 -14 24 58.2 21.3 V G96 – Mt. Lemmon Survey MPS 295872
2009 09 21.20848 21 25 59.30 -14 24 59.1 21.5 V G96 – Mt. Lemmon Survey MPS 295872
2009 09 21.21609 21 25 59.12 -14 25 00.0 21.4 V G96 – Mt. Lemmon Survey MPS 295872
2009 09 21.22378 21 25 58.94 -14 25 01.2 20.9 V G96 – Mt. Lemmon Survey MPS 295872
2010 11 10.26601 02 42 34.88 +15 12 04.6 20.4 V G96 – Mt. Lemmon Survey MPS 355385
2010 11 10.27168 02 42 34.56 +15 12 01.7 19.8 V G96 – Mt. Lemmon Survey MPS 355385
2010 11 10.27746 02 42 34.34 +15 12 01.7 19.6 V G96 – Mt. Lemmon Survey MPS 355385
2010 11 10.28321 02 42 34.02 +15 12 00.8 20.1 V G96 – Mt. Lemmon Survey MPS 355385
2010 11 27.24128 02 30 32.61 +14 13 35.6 20.9 V G96 – Mt. Lemmon Survey MPS 358952
2010 11 27.24876 02 30 32.32 +14 13 34.7 20.7 V G96 – Mt. Lemmon Survey MPS 358952
2010 11 27.25623 02 30 32.07 +14 13 33.4 21.1 V G96 – Mt. Lemmon Survey MPS 358952
2010 11 27.26358 02 30 31.82 +14 13 32.1 20.5 V G96 – Mt. Lemmon Survey MPS 358952
2010 11 28.17075 02 29 59.46 +14 10 51.6 21.1 V G96 – Mt. Lemmon Survey MPS 358952
2010 11 28.17921 02 29 59.20 +14 10 50.3 20.7 V G96 – Mt. Lemmon Survey MPS 358952
2010 11 28.18770 02 29 58.84 +14 10 48.9 20.7 V G96 – Mt. Lemmon Survey MPS 358952
2010 11 28.19619 02 29 58.52 +14 10 46.8 20.5 V G96 – Mt. Lemmon Survey MPS 358952
2010 12 14.06332 02 23 00.70 +13 36 13.2 21.6 V G96 – Mt. Lemmon Survey MPS 358952
2010 12 14.07064 02 23 00.60 +13 36 13.2 21.2 V G96 – Mt. Lemmon Survey MPS 358952
2010 12 14.07806 02 23 00.45 +13 36 11.9 20.6 V G96 – Mt. Lemmon Survey MPS 358952
2010 12 14.08543 02 23 00.34 +13 36 11.5 21.5 V G96 – Mt. Lemmon Survey MPS 358952
2012 01 26.25447 08 11 01.60 +19 01 59.7 21.3 V G96 – Mt. Lemmon Survey MPS 410032
2012 01 26.25970 08 11 01.35 +19 02 00.5 20.7 V G96 – Mt. Lemmon Survey MPS 410032
2012 01 26.26499 08 11 01.06 +19 02 01.3 20.9 V G96 – Mt. Lemmon Survey MPS 410032
2012 01 26.27018 08 11 00.81 +19 02 02.0 20.6 V G96 – Mt. Lemmon Survey MPS 410032
2012 02 24.15964 07 51 41.18 +20 03 42.8 21.9 V G96 – Mt. Lemmon Survey MPS 414066
2012 02 24.16840 07 51 40.93 +20 03 43.8 21.2 V G96 – Mt. Lemmon Survey MPS 414066
2012 02 24.17714 07 51 40.75 +20 03 44.0 21.1 V G96 – Mt. Lemmon Survey MPS 414066
2012 02 24.18591 07 51 40.50 +20 03 44.7 21.3 V G96 – Mt. Lemmon Survey MPS 414066
2013 03 10.34715 13 07 22.42 -07 13 08.6 20.2 R G32 – Elena Remote Observatory, San Pedro de Atacama MPS 460403
2013 03 10.35198 13 07 22.34 -07 13 07.0 20.0 R G32 – Elena Remote Observatory, San Pedro de Atacama MPS 460403
2013 03 10.35681 13 07 22.21 -07 13 06.8 20.0 R G32 – Elena Remote Observatory, San Pedro de Atacama MPS 460403
2013 03 12.25523 13 06 21.67 -07 06 35.6 20.2 R G32 – Elena Remote Observatory, San Pedro de Atacama MPS 460403
2013 03 12.26396 13 06 21.44 -07 06 34.8 19.9 R G32 – Elena Remote Observatory, San Pedro de Atacama MPS 460403
2013 03 12.27269 13 06 21.08 -07 06 32.0 20.1 R G32 – Elena Remote Observatory, San Pedro de Atacama MPS 460403
2013 03 13.46896 13 05 41.20 -07 02 18.1 20.8 V G96 – Mt. Lemmon Survey MPS 460403
2013 03 13.47492 13 05 41.06 -07 02 17.1 20.3 V G96 – Mt. Lemmon Survey MPS 460403
2013 03 13.48097 13 05 40.77 -07 02 15.6 20.9 V G96 – Mt. Lemmon Survey MPS 460403
2013 03 13.48696 13 05 40.59 -07 02 14.2 21.7 V G96 – Mt. Lemmon Survey MPS 460403
2013 03 14.24572 13 05 14.78 -06 59 23.8 19.9 R G32 – Elena Remote Observatory, San Pedro de Atacama MPS 460403
2013 03 14.25008 13 05 14.60 -06 59 22.4 19.9 R G32 – Elena Remote Observatory, San Pedro de Atacama MPS 460403
